STARLINK-1640 (46173 NORAD) Tracking and Keplerian Element Data

This shows tracking and keplerian element data for the satellite.

Feedback or suggestion? Click here.




ElementValue
Catalog46173
NameSTARLINK-1640
Epoch Orbit177
Epoch Day268.91668981
Epoch Year2020
RAAN258.914
Inclination52.9983
Eccentricity0.0001238
Argument of Perigee72.1126
Mean Anonmoly235.8382
Mean Motion15.28372015
Decay Rate-0.01066782
L11 46173U 20057BJ 20268.91668981 -.01066782 00000-0 -41562-1 0 9992
L22 46173 52.9983 258.9140 0001238 72.1126 235.8382 15.28372015 1771

Live tracking and technical data element details for STARLINK-1640 (NORAD 46173). STARLINK-1640 can be tracked NOW for your location showing map with azimuth and elevation plus other details from your city location.

Track the satellite on the map from your city or location and see movement details for azimuth, elevation, latitude, longitude, range, height, and movement on the map or in text.







IsCatalogInMostPopularTable: catalog: 46173, numindb: 6
Update: records affected: 1



GetName: 46173 STARLINK-1640

Hit Count: updated at: Sat, 26 Sep 2020 13:51:58 GMT